This is the latest recevied weather packets stored in our database for station/object IU5NOC-10. If no packets are shown the sender has not sent any weather packets the latest 1 day(s).
| Time | Temp. | Humidity | Pressure | Rain* | Wind** | Luminosity | Snow |
|---|---|---|---|---|---|---|---|
| 1777979808 | 15.56° C | 9% | - | 2.79 mm | 0.45 m/s, 343° | - | - |
| 1777978908 | 15.56° C | 9% | - | 3.81 mm | 1.34 m/s, 240° | - | - |
| 1777978022 | 15.56° C | 9% | - | 2.79 mm | 3.58 m/s, 199° | - | - |
| 1777978009 | 15.56° C | 9% | - | 2.54 mm | 3.13 m/s, 279° | - | - |
| 1777977123 | 15.56° C | 8% | - | 1.27 mm | 0 m/s | - | - |
| 1777977108 | 15.56° C | 8% | - | 1.27 mm | 0 m/s | - | - |
| 1777976221 | 16.11° C | 8% | - | 0.51 mm | 0.89 m/s, 310° | - | - |
| 1777976208 | 16.11° C | 8% | - | 0.51 mm | 0.45 m/s, 34° | - | - |
| 1777975322 | 16.67° C | 8% | - | 0 mm | 0.89 m/s, 220° | - | - |
| 1777975308 | 17.22° C | 8% | - | 0 mm | 1.79 m/s, 177° | - | - |
| 1777974421 | 16.67° C | 8% | - | 0 mm | 0.89 m/s, 77° | - | - |
| 1777974408 | 16.67° C | 8% | - | 0 mm | 1.34 m/s, 285° | - | - |
| 1777973521 | 16.67° C | 8% | - | 0 mm | 0.45 m/s, 299° | - | - |
| 1777973509 | 16.67° C | 8% | - | 0 mm | 1.34 m/s, 265° | - | - |
| 1777972621 | 15.56° C | 8% | - | 0 mm | 0.45 m/s, 61° | - | - |
| 1777972608 | 15.56° C | 8% | - | 0 mm | 0.89 m/s, 328° | - | - |
| 1777971721 | 15° C | 8% | - | 0 mm | 0 m/s | - | - |
| 1777971708 | 15° C | 8% | - | 0 mm | 0.45 m/s, 8° | - | - |
| 1777970821 | 14.44° C | 8% | - | 0 mm | 0 m/s | - | - |
| 1777970808 | 14.44° C | 8% | - | 0 mm | 0.45 m/s, 358° | - | - |
| 1777969921 | 14.44° C | 9% | - | 0 mm | 0 m/s | - | - |
| 1777969908 | 14.44° C | 9% | - | 0 mm | 0 m/s | - | - |
| 1777969009 | 14.44° C | 9% | - | 0 mm | 0.45 m/s, 63° | - | - |
| 1777968109 | 13.89° C | 9% | - | 0 mm | 1.34 m/s, 327° | - | - |
| 1777967208 | 13.33° C | 9% | - | 0 mm | 0 m/s | - | - |
* Rain latest hour (hover to see other rain measurements)
** Current wind speed in m/s (hover to see current wind gust speed)